| time (UTC) | temp F | wind direction | speed MPH | gust MPH | rain 1hr in | rain 24hr in | rain mn in | humidity % | barometer mb |
| 20260906000503 | 58 | 262 | 5.0 | 11.0 | 0.00 | 0.00 | 0.00 | 92 | 1011.0 |
| 20260905234504 | 58 | 263 | 6.0 | 11.0 | 0.00 | 0.00 | 0.00 | 92 | 1011.0 |
| 20260905234005 | 58 | 277 | 5.0 | 10.0 | 0.00 | 0.00 | 0.00 | 92 | 1011.0 |
| 20260905233004 | 58 | 277 | 5.0 | 11.0 | 0.00 | 0.00 | 0.00 | 92 | 1011.0 |
| 20260905232004 | 58 | 276 | 5.0 | 11.0 | 0.00 | 0.00 | 0.00 | 91 | 1011.0 |
| 20260905231503 | 58 | 276 | 5.0 | 10.0 | 0.00 | 0.00 | 0.00 | 91 | 1011.0 |
| 20260905231005 | 58 | 267 | 5.0 | 14.0 | 0.00 | 0.00 | 0.00 | 91 | 1010.0 |
| 20260905230005 | 58 | 274 | 5.0 | 15.0 | 0.00 | 0.00 | 0.00 | 91 | 1010.0 |
| 20260905225504 | 58 | 264 | 4.0 | 11.0 | 0.00 | 0.00 | 0.00 | 92 | 1009.0 |
| 20260905224504 | 58 | 277 | 4.0 | 12.0 | 0.00 | 0.00 | 0.00 | 92 | 1009.0 |
| 20260905224005 | 57 | 263 | 2.0 | 12.0 | 0.00 | 0.00 | 0.00 | 92 | 1010.0 |
| 20260905223503 | 57 | 280 | 2.0 | 8.0 | 0.00 | 0.00 | 0.00 | 91 | 1010.0 |
| 20260905223004 | 57 | 300 | 4.0 | 8.0 | 0.00 | 0.00 | 0.00 | 91 | 1010.0 |
| 20260905222503 | 57 | 312 | 4.0 | 8.0 | 0.00 | 0.00 | 0.00 | 91 | 1011.0 |
| 20260905222005 | 57 | 307 | 3.0 | 8.0 | 0.00 | 0.00 | 0.00 | 90 | 1011.0 |
| 20260905221504 | 57 | 309 | 3.0 | 7.0 | 0.00 | 0.00 | 0.00 | 90 | 1011.0 |
| 20260905221005 | 57 | 320 | 4.0 | 10.0 | 0.00 | 0.00 | 0.00 | 89 | 1011.0 |
| 20260905215504 | 57 | 308 | 4.0 | 10.0 | 0.00 | 0.00 | 0.00 | 89 | 1010.0 |
| 20260905215005 | 57 | 289 | 4.0 | 16.0 | 0.00 | 0.00 | 0.00 | 89 | 1010.0 |
| 20260905214504 | 57 | 289 | 4.0 | 16.0 | 0.00 | 0.00 | 0.00 | 89 | 1010.0 |
| 20260905214005 | 57 | 279 | 4.0 | 9.0 | 0.00 | 0.00 | 0.00 | 88 | 1009.0 |
| 20260905213503 | 57 | 256 | 4.0 | 10.0 | 0.00 | 0.00 | 0.00 | 88 | 1009.0 |
| 20260905212504 | 57 | 276 | 5.0 | 8.0 | 0.00 | 0.00 | 0.00 | 87 | 1009.0 |
| 20260905212004 | 57 | 272 | 5.0 | 8.0 | 0.00 | 0.00 | 0.00 | 87 | 1009.0 |
| 20260905211005 | 57 | 253 | 5.0 | 12.0 | 0.00 | 0.00 | 0.00 | 87 | 1006.9 |
| 20260905210004 | 57 | 272 | 6.0 | 16.0 | 0.00 | 0.00 | 0.00 | 86 | 1006.9 |
| 20260905205503 | 57 | 270 | 5.0 | 16.0 | 0.00 | 0.00 | 0.00 | 86 | 1008.0 |
| 20260905204503 | 58 | 260 | 5.0 | 10.0 | 0.00 | 0.00 | 0.00 | 84 | 1008.0 |
| 20260905204004 | 58 | 268 | 7.0 | 13.0 | 0.00 | 0.00 | 0.00 | 84 | 1008.0 |
| 20260905203503 | 58 | 288 | 7.0 | 13.0 | 0.00 | 0.00 | 0.00 | 83 | 1008.0 |
| 20260905203005 | 58 | 297 | 7.0 | 15.0 | 0.00 | 0.00 | 0.00 | 82 | 1008.0 |
| 20260905202504 | 59 | 294 | 8.0 | 15.0 | 0.00 | 0.00 | 0.00 | 83 | 1006.9 |
| 20260905201504 | 59 | 284 | 6.0 | 14.0 | 0.00 | 0.00 | 0.00 | 88 | 1006.9 |
| 20260905200504 | 59 | 253 | 10.0 | 18.0 | 0.00 | 0.00 | 0.00 | 88 | 1006.9 |
| 20260905200005 | 59 | 253 | 11.0 | 21.0 | 0.00 | 0.00 | 0.00 | 88 | 1006.9 |
| 20260905195503 | 59 | 264 | 12.0 | 21.0 | 0.00 | 0.00 | 0.00 | 88 | 1005.9 |
| 20260905194504 | 59 | 266 | 12.0 | 22.0 | 0.00 | 0.00 | 0.00 | 87 | 1005.9 |
| 20260905194005 | 59 | 259 | 12.0 | 21.0 | 0.00 | 0.00 | 0.00 | 87 | 1005.9 |
| 20260905193504 | 59 | 261 | 13.0 | 21.0 | 0.00 | 0.00 | 0.00 | 87 | 1005.9 |
| 20260905193005 | 59 | 260 | 13.0 | 21.0 | 0.00 | 0.00 | 0.00 | 87 | 1005.9 |
| 20260905192504 | 59 | 259 | 14.0 | 24.0 | 0.00 | 0.00 | 0.00 | 87 | 1005.9 |
| 20260905192004 | 59 | 267 | 14.0 | 24.0 | 0.00 | 0.00 | 0.00 | 86 | 1005.9 |
| 20260905191504 | 60 | 264 | 15.0 | 27.0 | 0.00 | 0.00 | 0.00 | 86 | 1005.9 |
| 20260905191005 | 60 | 269 | 14.0 | 27.0 | 0.00 | 0.00 | 0.00 | 86 | 1005.9 |
| 20260905190503 | 60 | 278 | 14.0 | 26.0 | 0.00 | 0.00 | 0.00 | 86 | 1005.9 |
| 20260905190005 | 60 | 269 | 14.0 | 28.0 | 0.00 | 0.00 | 0.00 | 85 | 1005.9 |
| 20260905185503 | 59 | 268 | 12.0 | 28.0 | 0.00 | 0.00 | 0.00 | 86 | 1004.9 |
| 20260905184503 | 59 | 270 | 12.0 | 23.0 | 0.00 | 0.00 | 0.00 | 86 | 1004.9 |
| 20260905184005 | 59 | 273 | 14.0 | 23.0 | 0.00 | 0.00 | 0.00 | 85 | 1005.9 |
| 20260905183503 | 59 | 275 | 14.0 | 21.0 | 0.00 | 0.00 | 0.00 | 85 | 1005.9 |
| 20260905183005 | 59 | 278 | 13.0 | 21.0 | 0.00 | 0.00 | 0.00 | 85 | 1005.9 |
| 20260905182503 | 59 | 272 | 12.0 | 20.0 | 0.00 | 0.00 | 0.00 | 86 | 1004.9 |
| 20260905182005 | 59 | 275 | 12.0 | 21.0 | 0.00 | 0.00 | 0.00 | 85 | 1004.9 |
| 20260905181503 | 59 | 278 | 12.0 | 22.0 | 0.00 | 0.00 | 0.00 | 85 | 1004.9 |
| 20260905181005 | 59 | 270 | 13.0 | 23.0 | 0.00 | 0.00 | 0.00 | 84 | 1004.9 |
| 20260905175504 | 59 | 276 | 12.0 | 22.0 | 0.00 | 0.00 | 0.00 | 83 | 1004.9 |
| 20260905174504 | 59 | 275 | 13.0 | 30.0 | 0.00 | 0.00 | 0.00 | 84 | 1004.9 |
| 20260905174004 | 59 | 275 | 13.0 | 30.0 | 0.00 | 0.00 | 0.00 | 83 | 1004.9 |
| 20260905173503 | 59 | 271 | 12.0 | 27.0 | 0.00 | 0.00 | 0.00 | 84 | 1004.9 |
| 20260905173004 | 59 | 269 | 13.0 | 23.0 | 0.00 | 0.00 | 0.00 | 84 | 1004.9 |
| 20260905172504 | 59 | 274 | 15.0 | 24.0 | 0.00 | 0.00 | 0.00 | 83 | 1004.9 |
| 20260905172005 | 59 | 270 | 14.0 | 27.0 | 0.00 | 0.00 | 0.00 | 83 | 1004.9 |
| 20260905171503 | 59 | 263 | 14.0 | 27.0 | 0.00 | 0.00 | 0.00 | 84 | 1004.9 |
| 20260905171005 | 59 | 271 | 11.0 | 23.0 | 0.00 | 0.00 | 0.00 | 84 | 1003.9 |
| 20260905170005 | 60 | 279 | 13.0 | 27.0 | 0.00 | 0.00 | 0.00 | 86 | 1003.9 |
| 20260905165503 | 60 | 276 | 13.0 | 27.0 | 0.00 | 0.00 | 0.00 | 83 | 1003.9 |
| 20260905164503 | 60 | 272 | 14.0 | 31.0 | 0.00 | 0.00 | 0.00 | 77 | 1003.9 |
| 20260905164005 | 60 | 263 | 15.0 | 28.0 | 0.00 | 0.00 | 0.00 | 78 | 1003.9 |
| 20260905163503 | 61 | 268 | 15.0 | 28.0 | 0.00 | 0.00 | 0.00 | 76 | 1003.9 |
| 20260905163005 | 61 | 271 | 14.0 | 24.0 | 0.00 | 0.00 | 0.00 | 76 | 1003.9 |
| 20260905162504 | 61 | 270 | 12.0 | 21.0 | 0.00 | 0.00 | 0.00 | 78 | 1004.9 |
| 20260905162004 | 61 | 282 | 12.0 | 26.0 | 0.00 | 0.00 | 0.00 | 79 | 1004.9 |
| 20260905161505 | 61 | 287 | 11.0 | 26.0 | 0.00 | 0.00 | 0.00 | 79 | 1004.9 |
| 20260905161004 | 61 | 273 | 10.0 | 19.0 | 0.00 | 0.00 | 0.00 | 78 | 1004.9 |
| 20260905160504 | 61 | 266 | 10.0 | 19.0 | 0.00 | 0.00 | 0.00 | 77 | 1004.9 |
| 20260905160004 | 61 | 276 | 11.0 | 20.0 | 0.00 | 0.00 | 0.00 | 77 | 1004.9 |
| 20260905155504 | 62 | 270 | 11.0 | 20.0 | 0.00 | 0.00 | 0.00 | 77 | 1003.9 |
| 20260905154504 | 61 | 264 | 11.0 | 19.0 | 0.00 | 0.00 | 0.00 | 75 | 1003.9 |
| 20260905154004 | 62 | 268 | 10.0 | 19.0 | 0.00 | 0.00 | 0.00 | 74 | 1003.9 |
| 20260905152503 | 62 | 275 | 11.0 | 23.0 | 0.00 | 0.00 | 0.00 | 74 | 1003.9 |
| 20260905152005 | 62 | 275 | 12.0 | 25.0 | 0.00 | 0.00 | 0.00 | 75 | 1003.9 |
| 20260905151503 | 62 | 266 | 13.0 | 25.0 | 0.00 | 0.00 | 0.00 | 74 | 1003.9 |
| 20260905151005 | 62 | 261 | 13.0 | 24.0 | 0.00 | 0.00 | 0.00 | 73 | 1003.9 |
| 20260905150503 | 62 | 268 | 12.0 | 24.0 | 0.00 | 0.00 | 0.00 | 73 | 1003.9 |
| 20260905150005 | 62 | 272 | 13.0 | 24.0 | 0.00 | 0.00 | 0.00 | 72 | 1003.9 |
| 20260905145504 | 62 | 270 | 13.0 | 26.0 | 0.00 | 0.00 | 0.00 | 71 | 1003.9 |
| 20260905144503 | 63 | 276 | 11.0 | 26.0 | 0.00 | 0.00 | 0.00 | 73 | 1003.9 |
| 20260905144005 | 63 | 265 | 10.0 | 26.0 | 0.00 | 0.00 | 0.00 | 72 | 1003.9 |
| 20260905143503 | 64 | 282 | 6.0 | 20.0 | 0.00 | 0.00 | 0.00 | 72 | 1003.9 |
| 20260905142503 | 63 | 273 | 9.0 | 22.0 | 0.00 | 0.00 | 0.00 | 73 | 1003.9 |
| 20260905142005 | 63 | 270 | 11.0 | 22.0 | 0.00 | 0.00 | 0.00 | 72 | 1003.9 |
| 20260905141503 | 63 | 258 | 12.0 | 25.0 | 0.00 | 0.00 | 0.00 | 74 | 1003.9 |
| 20260905141005 | 62 | 255 | 12.0 | 28.0 | 0.00 | 0.00 | 0.00 | 73 | 1002.9 |
| 20260905140504 | 62 | 266 | 13.0 | 28.0 | 0.00 | 0.00 | 0.00 | 71 | 1002.9 |
| 20260905140005 | 63 | 276 | 11.0 | 19.0 | 0.00 | 0.00 | 0.00 | 72 | 1002.9 |
| 20260905135503 | 63 | 269 | 9.0 | 23.0 | 0.00 | 0.00 | 0.00 | 73 | 1003.9 |
| 20260905135005 | 63 | 266 | 10.0 | 23.0 | 0.00 | 0.00 | 0.00 | 75 | 1003.9 |
| 20260905134503 | 62 | 278 | 10.0 | 19.0 | 0.00 | 0.00 | 0.00 | 75 | 1003.9 |
| 20260905134005 | 62 | 270 | 11.0 | 18.0 | 0.00 | 0.00 | 0.00 | 75 | 1003.9 |
| 20260905133503 | 63 | 261 | 10.0 | 18.0 | 0.00 | 0.00 | 0.00 | 74 | 1003.9 |
| 20260905133005 | 63 | 270 | 10.0 | 18.0 | 0.00 | 0.00 | 0.00 | 75 | 1003.9 |
| 20260905132005 | 63 | 265 | 8.0 | 17.0 | 0.00 | 0.00 | 0.00 | 75 | 1004.9 |
| 20260905131503 | 63 | 270 | 11.0 | 21.0 | 0.00 | 0.00 | 0.00 | 74 | 1004.9 |
| 20260905131005 | 63 | 271 | 12.0 | 22.0 | 0.00 | 0.00 | 0.00 | 73 | 1003.9 |
| 20260905130503 | 64 | 273 | 11.0 | 22.0 | 0.00 | 0.00 | 0.00 | 74 | 1003.9 |
| 20260905130005 | 63 | 282 | 12.0 | 22.0 | 0.00 | 0.00 | 0.00 | 74 | 1003.9 |
| 20260905125503 | 63 | 281 | 11.0 | 22.0 | 0.00 | 0.00 | 0.00 | 75 | 1003.9 |
| 20260905125004 | 63 | 279 | 11.0 | 20.0 | 0.00 | 0.00 | 0.00 | 76 | 1003.9 |
| 20260905124504 | 63 | 282 | 11.0 | 20.0 | 0.00 | 0.00 | 0.00 | 74 | 1003.9 |
| 20260905124004 | 63 | 281 | 9.0 | 17.0 | 0.00 | 0.05 | 0.00 | 75 | 1003.9 |
| 20260905123005 | 62 | 270 | 7.0 | 17.0 | 0.00 | 0.05 | 0.00 | 79 | 1003.9 |
| 20260905122503 | 62 | 257 | 8.0 | 20.0 | 0.00 | 0.05 | 0.00 | 81 | 1003.9 |
| 20260905122005 | 62 | 263 | 10.0 | 20.0 | 0.00 | 0.05 | 0.00 | 79 | 1003.9 |
| 20260905121503 | 62 | 276 | 9.0 | 20.0 | 0.00 | 0.05 | 0.00 | 77 | 1003.9 |
| 20260905121005 | 63 | 271 | 9.0 | 26.0 | 0.00 | 0.05 | 0.00 | 76 | 1003.9 |
| 20260905120503 | 64 | 264 | 11.0 | 26.0 | 0.00 | 0.05 | 0.00 | 72 | 1003.9 |
| 20260905120005 | 63 | 268 | 10.0 | 26.0 | 0.00 | 0.05 | 0.00 | 73 | 1003.9 |
| 20260905115503 | 63 | 287 | 9.0 | 18.0 | 0.00 | 0.05 | 0.00 | 75 | 1003.9 |
| 20260905115005 | 63 | 280 | 9.0 | 18.0 | 0.00 | 0.05 | 0.00 | 75 | 1003.9 |
| 20260905114503 | 64 | 269 | 8.0 | 17.0 | 0.00 | 0.05 | 0.00 | 74 | 1003.9 |
| 20260905114005 | 64 | 274 | 7.0 | 16.0 | 0.00 | 0.05 | 0.00 | 76 | 1002.9 |
| 20260905113503 | 64 | 272 | 6.0 | 16.0 | 0.00 | 0.05 | 0.00 | 74 | 1002.9 |
| 20260905113004 | 64 | 265 | 6.0 | 14.0 | 0.00 | 0.05 | 0.00 | 76 | 1002.9 |
| 20260905112504 | 63 | 277 | 5.0 | 13.0 | 0.00 | 0.05 | 0.00 | 78 | 1002.9 |
| 20260905112004 | 63 | 267 | 6.0 | 17.0 | 0.00 | 0.05 | 0.00 | 78 | 1002.9 |
| 20260905111504 | 63 | 265 | 7.0 | 17.0 | 0.00 | 0.10 | 0.00 | 78 | 1002.9 |
| 20260905111004 | 63 | 253 | 7.0 | 18.0 | 0.00 | 0.10 | 0.00 | 77 | 1002.9 |
| 20260905110504 | 63 | 236 | 5.0 | 18.0 | 0.00 | 0.10 | 0.00 | 78 | 1002.9 |
| 20260905110004 | 63 | 266 | 6.0 | 17.0 | 0.00 | 0.10 | 0.00 | 78 | 1002.9 |
| 20260905105503 | 62 | 279 | 7.0 | 17.0 | 0.00 | 0.10 | 0.00 | 77 | 1002.9 |
| 20260905105005 | 63 | 264 | 7.0 | 21.0 | 0.00 | 0.10 | 0.00 | 74 | 1002.9 |
| 20260905104503 | 63 | 254 | 7.0 | 21.0 | 0.00 | 0.10 | 0.00 | 75 | 1002.9 |
| 20260905104005 | 63 | 272 | 7.0 | 19.0 | 0.00 | 0.10 | 0.00 | 77 | 1002.9 |
| 20260905103503 | 63 | 265 | 6.0 | 19.0 | 0.00 | 0.10 | 0.00 | 76 | 1002.9 |
| 20260905102504 | 63 | 267 | 7.0 | 16.0 | 0.00 | 0.10 | 0.00 | 78 | 1002.9 |
| 20260905102004 | 62 | 268 | 7.0 | 18.0 | 0.00 | 0.10 | 0.00 | 79 | 1002.9 |
| 20260905101503 | 62 | 265 | 7.0 | 18.0 | 0.00 | 0.10 | 0.00 | 77 | 1002.9 |
| 20260905101005 | 62 | 262 | 6.0 | 15.0 | 0.00 | 0.10 | 0.00 | 77 | 1002.9 |
| 20260905100503 | 62 | 250 | 6.0 | 12.0 | 0.00 | 0.10 | 0.00 | 78 | 1002.9 |
| 20260905100005 | 62 | 253 | 7.0 | 12.0 | 0.00 | 0.10 | 0.00 | 79 | 1002.9 |
| 20260905095504 | 62 | 282 | 7.0 | 14.0 | 0.00 | 0.10 | 0.00 | 80 | 1002.9 |
| 20260905095005 | 62 | 292 | 7.0 | 14.0 | 0.00 | 0.10 | 0.00 | 78 | 1002.9 |
| 20260905094503 | 62 | 271 | 8.0 | 16.0 | 0.00 | 0.10 | 0.00 | 77 | 1002.9 |
| 20260905094005 | 62 | 263 | 7.0 | 16.0 | 0.00 | 0.10 | 0.00 | 77 | 1002.9 |
| 20260905093504 | 62 | 257 | 5.0 | 16.0 | 0.00 | 0.10 | 0.00 | 78 | 1002.9 |
| 20260905093004 | 63 | 250 | 5.0 | 16.0 | 0.00 | 0.10 | 0.00 | 77 | 1002.9 |
| 20260905092503 | 62 | 264 | 6.0 | 12.0 | 0.00 | 0.10 | 0.00 | 81 | 1001.9 |
| 20260905092005 | 62 | 263 | 7.0 | 16.0 | 0.00 | 0.10 | 0.00 | 79 | 1001.9 |
| 20260905091503 | 62 | 266 | 7.0 | 16.0 | 0.00 | 0.10 | 0.00 | 80 | 1001.9 |
| 20260905091005 | 62 | 281 | 6.0 | 15.0 | 0.00 | 0.10 | 0.00 | 79 | 1001.9 |
| 20260905090503 | 61 | 285 | 8.0 | 15.0 | 0.00 | 0.10 | 0.00 | 80 | 1001.9 |
| 20260905090004 | 61 | 278 | 10.0 | 18.0 | 0.00 | 0.10 | 0.00 | 79 | 1001.9 |
| 20260905085503 | 60 | 260 | 11.0 | 21.0 | 0.00 | 0.10 | 0.00 | 81 | 1000.9 |
| 20260905084503 | 60 | 267 | 11.0 | 21.0 | 0.00 | 0.10 | 0.00 | 81 | 1000.9 |
| 20260905084004 | 60 | 268 | 10.0 | 21.0 | 0.00 | 0.10 | 0.00 | 84 | 1000.9 |
| 20260905083005 | 60 | 274 | 9.0 | 29.0 | 0.00 | 0.10 | 0.00 | 85 | 1000.9 |
| 20260905082503 | 60 | 277 | 9.0 | 29.0 | 0.00 | 0.10 | 0.00 | 83 | 1001.9 |
| 20260905082005 | 61 | 280 | 10.0 | 22.0 | 0.00 | 0.10 | 0.00 | 82 | 1001.9 |
| 20260905081005 | 60 | 276 | 9.0 | 23.0 | 0.00 | 0.10 | 0.00 | 81 | 1001.9 |
| 20260905080503 | 60 | 270 | 10.0 | 23.0 | 0.00 | 0.10 | 0.00 | 81 | 1001.9 |
| 20260905080007 | 60 | 273 | 12.0 | 24.0 | 0.00 | 0.10 | 0.00 | 82 | 1001.9 |
| 20260905075504 | 60 | 277 | 11.0 | 24.0 | 0.00 | 0.10 | 0.00 | 81 | 1001.9 |
| 20260905075005 | 60 | 273 | 8.0 | 18.0 | 0.00 | 0.10 | 0.00 | 83 | 1001.9 |
| 20260905074503 | 60 | 263 | 10.0 | 19.0 | 0.00 | 0.10 | 0.00 | 83 | 1001.9 |
| 20260905074004 | 60 | 269 | 10.0 | 19.0 | 0.00 | 0.10 | 0.00 | 83 | 1001.9 |
| 20260905073503 | 60 | 268 | 10.0 | 22.0 | 0.00 | 0.10 | 0.00 | 85 | 1001.9 |
| 20260905073004 | 60 | 266 | 11.0 | 22.0 | 0.00 | 0.10 | 0.00 | 84 | 1001.9 |
| 20260905072503 | 59 | 270 | 10.0 | 22.0 | 0.00 | 0.10 | 0.00 | 84 | 1001.9 |
| 20260905072005 | 59 | 264 | 8.0 | 21.0 | 0.00 | 0.10 | 0.00 | 85 | 1001.9 |
| 20260905071503 | 59 | 270 | 6.0 | 15.0 | 0.00 | 0.10 | 0.00 | 86 | 1001.9 |
| 20260905071004 | 59 | 278 | 8.0 | 21.0 | 0.00 | 0.10 | 0.00 | 85 | 1000.9 |
| 20260905070503 | 59 | 272 | 9.0 | 21.0 | 0.00 | 0.10 | 0.00 | 85 | 1000.9 |
| 20260905070005 | 59 | 270 | 9.0 | 21.0 | 0.00 | 0.10 | 0.00 | 86 | 1000.9 |
| 20260905065503 | 59 | 262 | 11.0 | 24.0 | 0.00 | 0.10 | 0.00 | 86 | 1000.9 |
| 20260905065004 | 58 | 262 | 13.0 | 24.0 | 0.00 | 0.10 | 0.00 | 85 | 1000.9 |
| 20260905064005 | 58 | 270 | 11.0 | 21.0 | 0.00 | 0.10 | 0.00 | 86 | 999.9 |
| 20260905063503 | 58 | 266 | 11.0 | 18.0 | 0.00 | 0.10 | 0.00 | 87 | 999.9 |
| 20260905063004 | 58 | 267 | 11.0 | 21.0 | 0.00 | 0.10 | 0.00 | 88 | 999.9 |
| 20260905062004 | 58 | 277 | 11.0 | 19.0 | 0.00 | 0.10 | 0.00 | 89 | 999.9 |
| 20260905061503 | 58 | 259 | 12.0 | 24.0 | 0.00 | 0.10 | 0.00 | 90 | 999.9 |
| 20260905061005 | 58 | 248 | 12.0 | 24.0 | 0.00 | 0.10 | 0.00 | 90 | 998.9 |
| 20260905060503 | 58 | 263 | 10.0 | 18.0 | 0.00 | 0.10 | 0.00 | 92 | 998.9 |
| 20260905060004 | 57 | 278 | 11.0 | 21.0 | 0.00 | 0.10 | 0.00 | 92 | 998.9 |
| 20260905055005 | 57 | 264 | 11.0 | 20.0 | 0.00 | 0.10 | 0.00 | 93 | 998.9 |
| 20260905054004 | 57 | 287 | 12.0 | 25.0 | 0.00 | 0.10 | 0.00 | 93 | 999.9 |
| 20260905053503 | 57 | 280 | 11.0 | 25.0 | 0.00 | 0.10 | 0.00 | 92 | 999.9 |
| 20260905053004 | 58 | 265 | 9.0 | 19.0 | 0.00 | 0.10 | 0.00 | 90 | 999.9 |
| 20260905052503 | 58 | 276 | 10.0 | 21.0 | 0.00 | 0.10 | 0.00 | 89 | 999.9 |
| 20260905052005 | 58 | 281 | 11.0 | 23.0 | 0.00 | 0.10 | 0.00 | 89 | 999.9 |
| 20260905051503 | 57 | 271 | 11.0 | 23.0 | 0.00 | 0.10 | 0.00 | 90 | 999.9 |
| 20260905051005 | 57 | 270 | 11.0 | 18.0 | 0.00 | 0.10 | 0.00 | 90 | 999.9 |
| 20260905050503 | 57 | 277 | 12.0 | 25.0 | 0.00 | 0.10 | 0.00 | 89 | 999.9 |
| 20260905050005 | 57 | 285 | 13.0 | 25.0 | 0.00 | 0.10 | 0.00 | 90 | 999.9 |
| 20260905045503 | 57 | 279 | 12.0 | 21.0 | 0.00 | 0.10 | 0.00 | 91 | 999.9 |
| 20260905045005 | 57 | 267 | 12.0 | 21.0 | 0.00 | 0.10 | 0.00 | 91 | 999.9 |
| 20260905044503 | 57 | 264 | 11.0 | 20.0 | 0.00 | 0.10 | 0.00 | 91 | 999.9 |
| 20260905044005 | 57 | 275 | 10.0 | 24.0 | 0.00 | 0.10 | 0.00 | 91 | 999.9 |
| 20260905043503 | 57 | 268 | 9.0 | 24.0 | 0.00 | 0.10 | 0.00 | 92 | 999.9 |
| 20260905043005 | 57 | 256 | 11.0 | 25.0 | 0.00 | 0.10 | 0.00 | 92 | 999.9 |
| 20260905042503 | 57 | 266 | 11.0 | 25.0 | 0.00 | 0.10 | 0.00 | 93 | 998.9 |
| 20260905042004 | 57 | 269 | 12.0 | 21.0 | 0.00 | 0.10 | 0.00 | 93 | 998.9 |
| 20260905041004 | 58 | 272 | 9.0 | 18.0 | 0.00 | 0.10 | 0.00 | 90 | 998.9 |
| 20260905040503 | 58 | 276 | 9.0 | 21.0 | 0.00 | 0.10 | 0.00 | 89 | 998.9 |
| 20260905040005 | 58 | 271 | 10.0 | 21.0 | 0.00 | 0.10 | 0.00 | 88 | 998.9 |
| 20260905035503 | 58 | 272 | 12.0 | 19.0 | 0.00 | 0.10 | 0.00 | 88 | 999.9 |
| 20260905035005 | 58 | 273 | 13.0 | 21.0 | 0.00 | 0.10 | 0.00 | 88 | 999.9 |
| 20260905034005 | 58 | 271 | 12.0 | 20.0 | 0.00 | 0.10 | 0.00 | 89 | 998.9 |
| 20260905033503 | 58 | 278 | 12.0 | 19.0 | 0.00 | 0.10 | 0.00 | 89 | 998.9 |
| 20260905033005 | 58 | 277 | 13.0 | 20.0 | 0.00 | 0.10 | 0.00 | 89 | 998.9 |
| 20260905032503 | 58 | 271 | 12.0 | 20.0 | 0.00 | 0.10 | 0.00 | 89 | 998.9 |
| 20260905032004 | 58 | 270 | 11.0 | 19.0 | 0.00 | 0.10 | 0.00 | 89 | 998.9 |
| 20260905031504 | 58 | 270 | 11.0 | 19.0 | 0.00 | 0.10 | 0.00 | 89 | 998.9 |
| 20260905031004 | 58 | 270 | 11.0 | 24.0 | 0.00 | 0.10 | 0.00 | 90 | 998.9 |
| 20260905025503 | 57 | 263 | 13.0 | 22.0 | 0.00 | 0.10 | 0.00 | 90 | 998.9 |
| 20260905024503 | 57 | 274 | 10.0 | 23.0 | 0.00 | 0.10 | 0.00 | 92 | 998.9 |
| 20260905024004 | 57 | 271 | 12.0 | 23.0 | 0.00 | 0.10 | 0.00 | 92 | 997.9 |
| 20260905023503 | 57 | 278 | 12.0 | 20.0 | 0.00 | 0.10 | 0.00 | 92 | 997.9 |
| 20260905023005 | 57 | 280 | 9.0 | 20.0 | 0.00 | 0.10 | 0.00 | 92 | 997.9 |
| 20260905022503 | 57 | 279 | 8.0 | 15.0 | 0.00 | 0.10 | 0.00 | 92 | 997.9 |
| 20260905022005 | 57 | 286 | 9.0 | 18.0 | 0.00 | 0.10 | 0.00 | 92 | 997.9 |
| 20260905021503 | 57 | 282 | 11.0 | 21.0 | 0.00 | 0.10 | 0.00 | 92 | 997.9 |
| 20260905021005 | 57 | 276 | 10.0 | 21.0 | 0.00 | 0.10 | 0.00 | 91 | 996.9 |
| 20260905020503 | 58 | 277 | 10.0 | 18.0 | 0.00 | 0.10 | 0.00 | 92 | 996.9 |
| 20260905020005 | 57 | 272 | 10.0 | 17.0 | 0.00 | 0.10 | 0.00 | 91 | 996.9 |
| 20260905015503 | 57 | 269 | 11.0 | 17.0 | 0.00 | 0.10 | 0.00 | 91 | 996.9 |
| 20260905014503 | 57 | 278 | 12.0 | 19.0 | 0.00 | 0.10 | 0.00 | 92 | 996.9 |
| 20260905014005 | 57 | 289 | 13.0 | 21.0 | 0.00 | 0.10 | 0.00 | 92 | 998.9 |
| 20260905013503 | 57 | 282 | 12.0 | 21.0 | 0.00 | 0.10 | 0.00 | 92 | 998.9 |
| 20260905013005 | 57 | 263 | 11.0 | 25.0 | 0.00 | 0.10 | 0.00 | 93 | 998.9 |
| 20260905012503 | 57 | 265 | 10.0 | 25.0 | 0.00 | 0.10 | 0.00 | 93 | 997.9 |
| 20260905012005 | 57 | 266 | 8.0 | 16.0 | 0.00 | 0.10 | 0.00 | 94 | 997.9 |
| 20260905011503 | 57 | 261 | 8.0 | 20.0 | 0.00 | 0.10 | 0.00 | 95 | 997.9 |
| 20260905011005 | 57 | 267 | 9.0 | 20.0 | 0.00 | 0.10 | 0.00 | 94 | 997.9 |
| 20260905010503 | 57 | 269 | 9.0 | 19.0 | 0.00 | 0.10 | 0.00 | 94 | 997.9 |
| 20260905010005 | 57 | 271 | 9.0 | 19.0 | 0.00 | 0.10 | 0.00 | 94 | 997.9 |
| 20260905005005 | 57 | 282 | 9.0 | 20.0 | 0.00 | 0.10 | 0.00 | 95 | 997.9 |
| 20260905004503 | 57 | 283 | 9.0 | 20.0 | 0.00 | 0.10 | 0.00 | 96 | 997.9 |
| 20260905004004 | 57 | 291 | 9.0 | 19.0 | 0.00 | 0.10 | 0.00 | 96 | 997.9 |
| 20260905003504 | 57 | 282 | 10.0 | 17.0 | 0.00 | 0.10 | 0.00 | 96 | 997.9 |
| 20260905003005 | 57 | 266 | 9.0 | 16.0 | 0.00 | 0.10 | 0.00 | 97 | 997.9 |
| 20260905002503 | 57 | 262 | 8.0 | 18.0 | 0.00 | 0.10 | 0.00 | 96 | 997.9 |
| 20260905002005 | 57 | 261 | 10.0 | 27.0 | 0.00 | 0.10 | 0.00 | 96 | 997.9 |
| 20260905001503 | 57 | 267 | 10.0 | 27.0 | 0.00 | 0.10 | 0.00 | 100 | 997.9 |
| 20260905001005 | 57 | 275 | 10.0 | 17.0 | 0.00 | 0.10 | 0.00 | 100 | 997.9 |